{"data":{"norad_id":61257,"epoch":"2026-09-21T07:32:18.974400Z","epoch_age_seconds":121963,"freshness":"FRESH","line1":"1 61257U 24175Q   26264.31410850 -.00001663  00000+0 -38131-4 0  9999","line2":"2 61257  53.1603   1.9074 0000911  84.5910 275.5197 15.34378529111455","mean_motion":15.34378529,"eccentricity":9.11e-5,"inclination_deg":53.1603,"raan_deg":1.9074,"arg_perigee_deg":84.591,"mean_anomaly_deg":275.5197,"bstar":-3.8131e-5,"rev_number":11145,"period_min":93.849071320002,"perigee_km":462.14385092846,"apogee_km":463.3902636477,"semimajor_km":6840.9040572881,"source":"CELESTRAK","updated_at":"2026-09-22T09:00:49.350921Z"}}